Zurück zum Katalog

NOAA 16 DEB

AktivSSO
NORAD 41206·DEBRIS·🇺🇸 United States

Gestartet Sep 21, 2000 von Vandenberg Space Force Base

Loading…

Nächste Überflüge (nächste 24 Stunden)

TLE

AktuellSource: Space-Track

Epoche: Sep 14, 2026, 08:15 UTC

1 41206U 00055DK  26257.34414069  .00001837  00000-0  78017-3 0  9991
2 41206  98.6131 297.4969 0010310 249.7797 110.2275 14.26500280555291

Verfolge NOAA 16 DEB in Echtzeit mit AllMySat

Download on the App Store